Location: Biltmore Gardens
(41.6070°N, 83.4666°W)
Time: 13:03:04
(UTC+00:00)

SJ-6B - Pass Details

Date: 14 July 2020
Orbit: 510 x 581 km, 97.6° (Epoch: 04 August)

Event Time Altitude Azimuth Distance (km) Brightness Sun altitude
Rises 01:36:51 0° 176° (S) 2,739 6.0 -5.5°
Reaches altitude 10° 01:38:59 10° 180° (S) 1,858 5.2 -5.8°
Maximum altitude 01:42:58 57° 260° (W) 678 3.6 -6.4°
Drops below altitude 10° 01:47:02 10° 339° (NNW) 1,900 6.6 -7.0°
Sets 01:49:14 0° 344° (NNW) 2,808 7.4 -7.3°
